Forside
METAR-TAF:

METAR-TAF

Lufthavne :

Tri-County Regional Airport

Lone Rock, Wisconsin, USA

Breddekreds: 43-12-43N, længdekreds: 090-10-53W, højde: 219 m

Aktuelle vejr

Denne rapport blev lavet for 1 time og 12 minutter siden, kl. 01:56 UTC
Vind stille
Temperatur 23°C
Fugtighed 83%
Tryk 1012 hPa
Sigt: 16.1 km
skyfri

METAR: KLNR 250156Z AUTO 00000KT 10SM CLR 23/20 A2987 RMK AO2 SLP107 T02280200

Tid: 22:08 (03:08 UTC)


TAF: fraværende

Vejrobservationer og prognoser fra mere end 4000 lufthavne (METAR og TAF).

De gule og røde prikker repræsenterer de meteorologiske stationer.

Flyt musen over at se navnet på stationen.

Så klik over at se vejr observationer og prognoser.

At skifte det kort: Klik på de grønne knapper med et sort kors for at zoome ind; på den grønne knap med en bindestreg for at zoome ud; eller på de grønne pile for tilstødende kort.


METAR-TAF: